TimeADT,TemperatureF,Dew PointF,Humidity,Sea Level PressureIn,VisibilityMPH,Wind Direction,Wind SpeedMPH,Gust SpeedMPH,PrecipitationIn,Events,Conditions,WindDirDegrees,DateUTC
12:00 AM,57.4,54.5,90,29.91,-9999.0,South,2.3,-,N/A,,Unknown,190,2012-10-06 03:00:00
1:00 AM,57.2,54.9,92,29.91,-9999.0,SSW,3.5,-,N/A,,Unknown,210,2012-10-06 04:00:00
2:00 AM,57.4,54.9,91,29.91,-9999.0,SSW,4.6,-,N/A,,Unknown,200,2012-10-06 05:00:00
3:00 AM,57,54,88,29.91,,SSW,4.6,,,,,210,2012-10-06 06:00:00
3:00 AM,57.2,54.5,91,29.91,-9999.0,SSW,4.6,-,N/A,,Unknown,210,2012-10-06 06:00:00
4:00 AM,57.4,54.5,90,29.91,-9999.0,SSW,4.6,-,N/A,,Unknown,210,2012-10-06 07:00:00
5:00 AM,57.2,54.7,91,29.91,-9999.0,SW,5.8,-,N/A,,Unknown,220,2012-10-06 08:00:00
6:00 AM,57.4,54.7,91,29.92,-9999.0,SW,5.8,-,N/A,,Unknown,220,2012-10-06 09:00:00
7:00 AM,57.4,54.7,91,29.92,-9999.0,South,6.9,-,N/A,,Unknown,180,2012-10-06 10:00:00
8:00 AM,57.2,54.7,91,29.92,-9999.0,South,6.9,-,N/A,,Unknown,190,2012-10-06 11:00:00
9:00 AM,60,55,79,29.91,,South,11.5,,,,,180,2012-10-06 12:00:00
9:00 AM,59.7,55.2,85,29.91,-9999.0,South,11.5,-,N/A,,Unknown,180,2012-10-06 12:00:00
10:00 AM,61.7,54.0,76,29.91,-9999.0,SSW,15.0,-,N/A,,Unknown,200,2012-10-06 13:00:00
11:00 AM,63.3,54.9,74,29.90,-9999.0,SSW,12.7,19.6,N/A,,Unknown,200,2012-10-06 14:00:00
12:00 PM,64.8,55.0,71,29.88,-9999.0,South,16.1,23.0,N/A,,Unknown,190,2012-10-06 15:00:00
1:00 PM,67.1,56.3,68,29.87,-9999.0,South,15.0,24.2,N/A,,Unknown,190,2012-10-06 16:00:00
2:00 PM,66.4,54.9,66,29.85,-9999.0,SSW,17.3,26.5,N/A,,Unknown,200,2012-10-06 17:00:00
3:00 PM,66,55,60,29.84,,SSW,17.3,,,,,200,2012-10-06 18:00:00
3:00 PM,66.4,55.4,68,29.84,-9999.0,SSW,17.3,27.6,N/A,,Unknown,200,2012-10-06 18:00:00
4:00 PM,64.0,55.2,73,29.85,-9999.0,SSW,17.3,25.3,N/A,,Unknown,200,2012-10-06 19:00:00
5:00 PM,63.9,54.9,72,29.83,-9999.0,South,16.1,23.0,N/A,,Unknown,180,2012-10-06 20:00:00
6:00 PM,61.2,55.4,81,29.83,-9999.0,South,16.1,25.3,N/A,,Unknown,190,2012-10-06 21:00:00
7:00 PM,61.0,54.7,80,29.83,-9999.0,South,17.3,25.3,N/A,,Unknown,190,2012-10-06 22:00:00
8:00 PM,60.3,54.5,81,29.81,-9999.0,SSW,12.7,21.9,N/A,,Unknown,200,2012-10-06 23:00:00
9:00 PM,60,55,78,29.81,,South,17.3,,,,,190,2012-10-07 00:00:00
9:00 PM,60.3,55.0,83,29.81,-9999.0,South,17.3,-,N/A,,Unknown,190,2012-10-07 00:00:00
10:00 PM,61.3,55.6,81,29.81,-9999.0,SSW,12.7,20.7,N/A,,Unknown,200,2012-10-07 01:00:00
11:00 PM,61.3,55.4,81,29.81,-9999.0,SSW,11.5,21.9,N/A,,Unknown,210,2012-10-07 02:00:00